Weather History for KLVS - March, 2013

Change the Weather History Date:

Tuesday, March 26, 2013

  Actual Average Record
Temperature  
Mean Temperature 39 °F -  
Max Temperature 61 °F 57 °F 81 °F (1971)
Min Temperature 18 °F 28 °F 3 °F (1955)
Degree Days  
Heating Degree Days 26    
Moisture  
Dew Point 6 °F    
Average Humidity 29    
Maximum Humidity 52    
Minimum Humidity 13    
Precipitation  
Precipitation 0.00 in - - ()
Sea Level Pressure  
Sea Level Pressure 30.07 in    
Wind  
Wind Speed 13 mph (SSW)    
Max Wind Speed 32 mph    
Max Gust Speed 38 mph    
Visibility 10 miles    
Events      
Averages and records for this station are not official NWS values.
T = Trace of Precipitation, MM = Missing Value Source: NWS Daily Summary

Daily Weather History Graph

Daily Weather History Graph

Search for Another Location

Airport or City:

Trip Planner

Search our weather history database for the weather conditions in past years. The results will help you decide how hot, cold, wet, or windy it might be!

Date:

Astronomy

Mar. 26, 2013 Rise Set
Actual Time 6:55 AM MDT 7:17 PM MDT
Civil Twilight 6:29 AM MDT 7:43 PM MDT
Nautical Twilight 5:59 AM MDT 8:13 PM MDT
Astronomical Twilight 5:29 AM MDT 8:43 PM MDT
Moon 6:56 PM MDT (3/26) 6:12 AM MDT (3/26)
Length of Visible Light 13h 13m
Length of Day
12h 22m
Waxing Gibbous, 99% of the Moon is Illuminated
Mar 26
Waxing Gibbous
Mar 27
Full
Apr 2
Last Quarter
Apr 10
New
Apr 18
First Quarter

Hourly Weather History & Observations

Time (MDT) Temp. Windchill Dew Point Humidity Pressure Visibility Wind Dir Wind Speed Gust Speed Precip Events Conditions
12:53 AM 23.0 °F - 1.9 °F 40% 30.26 in 10.0 mi Calm Calm - N/A   Clear
1:53 AM 19.0 °F 12.3 °F -0.0 °F 43% 30.25 in 10.0 mi SSE 4.6 mph - N/A   Clear
2:53 AM 19.0 °F 7.5 °F 1.0 °F 46% 30.20 in 10.0 mi SSW 10.4 mph - N/A   Clear
3:53 AM 21.0 °F 7.6 °F 5.0 °F 50% 30.18 in 10.0 mi SSW 15.0 mph - N/A   Clear
4:53 AM 19.9 °F 6.2 °F 3.9 °F 50% 30.15 in 10.0 mi SSW 15.0 mph - N/A   Clear
5:53 AM 19.9 °F 3.9 °F 3.9 °F 50% 30.17 in 10.0 mi South 20.7 mph - N/A   Clear
6:53 AM 18.0 °F 1.3 °F 3.0 °F 52% 30.20 in 10.0 mi South 20.7 mph - N/A   Clear
7:53 AM 21.9 °F 9.2 °F 5.0 °F 48% 30.21 in 10.0 mi SSW 13.8 mph - N/A   Clear
8:53 AM 28.0 °F 19.3 °F 6.1 °F 39% 30.20 in 10.0 mi SSW 9.2 mph - N/A   Clear
9:53 AM 36.0 °F 26.3 °F 7.0 °F 30% 30.17 in 10.0 mi SSW 16.1 mph - N/A   Clear
10:53 AM 44.1 °F 36.2 °F 8.1 °F 23% 30.13 in 10.0 mi South 18.4 mph 25.3 mph N/A   Clear
11:53 AM 50.0 °F - 8.1 °F 18% 30.06 in 10.0 mi SSW 23.0 mph 31.1 mph N/A   Clear
12:53 PM 55.9 °F - 8.1 °F 15% 29.99 in 10.0 mi SSW 32.2 mph 38.0 mph N/A   Clear
1:53 PM 57.9 °F - 9.0 °F 14% 29.98 in 10.0 mi SW 31.1 mph 38.0 mph N/A   Clear
2:53 PM 57.9 °F - 10.0 °F 15% 29.96 in 10.0 mi SW 20.7 mph 32.2 mph N/A   Clear
3:53 PM 60.1 °F - 8.1 °F 13% 29.93 in 10.0 mi SW 23.0 mph 33.4 mph N/A   Clear
4:53 PM 59.0 °F - 7.0 °F 13% 29.91 in 10.0 mi SW 25.3 mph 33.4 mph N/A   Clear
5:53 PM 55.9 °F - 7.0 °F 14% 29.93 in 10.0 mi WSW 15.0 mph 26.5 mph N/A   Clear
6:53 PM 52.0 °F - 7.0 °F 16% 29.96 in 10.0 mi WSW 6.9 mph - N/A   Clear
7:53 PM 48.0 °F - 6.1 °F 18% 29.97 in 10.0 mi SSW 13.8 mph - N/A   Clear
8:53 PM 42.1 °F 34.9 °F 5.0 °F 22% 29.99 in 10.0 mi SSW 13.8 mph - N/A   Clear
9:53 PM 39.9 °F 32.5 °F 6.1 °F 25% 29.97 in 10.0 mi South 12.7 mph - N/A   Clear
10:53 PM 39.9 °F 31.8 °F 7.0 °F 26% 29.93 in 10.0 mi SSW 15.0 mph - N/A   Clear
11:53 PM 39.9 °F 31.8 °F 8.1 °F 27% 29.91 in 10.0 mi South 15.0 mph - N/A   Clear